Malmstrom AFB, MT

6:14 AM MDT on May 23, 2017 (GMT -0600)
Malmstrom AFB

Weather History for KGFA - July, 2013

Change the Weather History Date:

Wednesday, July 10, 2013

  Actual Average (KGTF) Record (KGTF)
Temperature  
Mean Temperature 72 °F -  
Max Temperature 93 °F 81 °F 105 °F (1973)
Min Temperature 51 °F 54 °F 42 °F (1999)
Cooling Degree Days 7    
Growing Degree Days 22 (Base 50)    
Moisture  
Dew Point 43 °F    
Average Humidity 41    
Maximum Humidity 83    
Minimum Humidity 12    
Precipitation  
Precipitation 0.00 in - - ()
Sea Level Pressure  
Sea Level Pressure 29.95 in    
Wind  
Wind Speed 8 mph (South)    
Max Wind Speed 15 mph    
Max Gust Speed 36 mph    
Visibility 10 miles    
Events Rain    
Averages and records for this station are not official NWS values.
T = Trace of Precipitation, MM = Missing Value Source: NWS Daily Summary

Daily Weather History Graph

Daily Weather History Graph

Search for Another Location

Airport or City:

Trip Planner

Search our weather history database for the weather conditions in past years. The results will help you decide how hot, cold, wet, or windy it might be!

Date:

Astronomy

Jul. 10, 2013 Rise Set
Actual Time 5:38 AM MDT 9:21 PM MDT
Civil Twilight 4:59 AM MDT 10:00 PM MDT
Nautical Twilight 4:06 AM MDT 10:53 PM MDT
Astronomical Twilight 2:50 AM MDT 12:07 AM MDT
Moon 8:16 AM MDT (7/10) 10:16 PM MDT (7/10)
Length of Visible Light 17h 01m
Length of Day
15h 42m
Waxing Crescent, 5% of the Moon is Illuminated
Jul 10
Waxing Crescent
Jul 15
First Quarter
Jul 22
Full
Jul 29
Last Quarter
Aug 6
New

Hourly Weather History & Observations

Time (MDT) Temp. Dew Point Humidity Pressure Visibility Wind Dir Wind Speed Gust Speed Precip Events Conditions
12:56 AM 61.0 °F 51.1 °F 70% 30.10 in 10.0 mi SE 9.2 mph - N/A   Clear
1:56 AM 60.1 °F 48.0 °F 64% 30.08 in 10.0 mi SSE 9.2 mph - N/A   Clear
2:56 AM 55.0 °F 46.0 °F 72% 30.09 in 10.0 mi South 4.6 mph - N/A   Clear
3:56 AM 53.1 °F 46.9 °F 80% 30.08 in 10.0 mi South 5.8 mph - N/A   Clear
4:56 AM 54.0 °F 46.9 °F 77% 30.08 in 10.0 mi South 6.9 mph - N/A   Clear
5:56 AM 51.1 °F 46.0 °F 83% 30.08 in 10.0 mi South 6.9 mph - N/A   Clear
6:56 AM 57.9 °F 50.0 °F 75% 30.06 in 10.0 mi South 5.8 mph - N/A   Clear
7:56 AM 63.0 °F 50.0 °F 63% 30.06 in 10.0 mi SSW 3.5 mph - N/A   Clear
8:56 AM 69.1 °F 50.0 °F 51% 30.05 in 10.0 mi SSW 4.6 mph - N/A   Clear
9:56 AM 77.0 °F 48.0 °F 36% 30.03 in 10.0 mi SSW 9.2 mph - N/A   Clear
10:56 AM 80.1 °F 41.0 °F 25% 30.01 in 10.0 mi SSW 12.7 mph - N/A   Clear
11:56 AM 82.9 °F 39.0 °F 21% 29.99 in 10.0 mi WSW 5.8 mph - N/A   Clear
12:56 PM 87.1 °F 37.0 °F 17% 29.98 in 10.0 mi SW 10.4 mph - N/A   Clear
1:56 PM 90.0 °F 39.9 °F 17% 29.94 in 10.0 mi SW 9.2 mph - N/A   Clear
2:56 PM 93.0 °F 39.0 °F 15% 29.91 in 10.0 mi SSW 10.4 mph 16.1 mph N/A   Clear
3:56 PM 91.0 °F 36.0 °F 14% 29.89 in 10.0 mi South 15.0 mph 20.7 mph N/A   Clear
4:56 PM 93.0 °F 36.0 °F 13% 29.86 in 10.0 mi NW 9.2 mph - N/A   Clear
5:56 PM 93.9 °F 34.0 °F 12% 29.83 in 10.0 mi SW 8.1 mph - N/A   Clear
6:56 PM 93.0 °F 35.1 °F 13% 29.81 in 10.0 mi SSW 6.9 mph - N/A   Clear
7:56 PM 88.0 °F 36.0 °F 16% 29.81 in 10.0 mi East 9.2 mph 35.7 mph 0.00 in Rain Light Rain
8:56 PM 82.9 °F 39.9 °F 22% 29.78 in 10.0 mi East 4.6 mph - 0.00 in   Clear
9:56 PM 73.9 °F 45.0 °F 35% 29.78 in 10.0 mi SE 8.1 mph - N/A   Clear
10:56 PM 75.0 °F 48.0 °F 38% 29.76 in 10.0 mi SE 10.4 mph - N/A   Clear
11:56 PM 69.1 °F 46.9 °F 45% 29.75 in 10.0 mi SSE 6.9 mph - N/A   Clear